Location: Nag� el Ma?a??a
(24.0667°N, 32.8833°E)
Time: 16:54:52
(UTC+00:00)

GPS 2-14 Rocket1 - Pass Details

Date: 25 September 2021
Orbit: 473 x 536 km, 20.7° (Epoch: 15 October)

Event Time Altitude Azimuth Distance (km) Brightness Sun altitude
Exits shadow 01:48:37 39° 132° (SE) 798 3.8 -25.7°
Drops below altitude 10° 01:51:31 10° 105° (ESE) 1,766 6.2 -25.0°
Sets 01:53:48 0° 101° (E) 2,649 7.4 -24.5°
